Columbus, NE

3:10 PM CDT on October 23, 2017 (GMT -0500)
Columbus Municipal

Weather History for KOLU - January, 2014

Change the Weather History Date:

Saturday, January 25, 2014

  Actual Average Record
Temperature  
Mean Temperature 37 °F -  
Max Temperature 44 °F 32 °F 62 °F (2005)
Min Temperature 30 °F 12 °F -8 °F (1950)
Degree Days  
Heating Degree Days 28    
Moisture  
Dew Point 25 °F    
Average Humidity 60    
Maximum Humidity 81    
Minimum Humidity 52    
Precipitation  
Precipitation 0.00 in - - ()
Sea Level Pressure  
Sea Level Pressure 29.87 in    
Wind  
Wind Speed 13 mph (WNW)    
Max Wind Speed 21 mph    
Max Gust Speed 29 mph    
Visibility 10 miles    
Events      
Averages and records for this station are not official NWS values.
T = Trace of Precipitation, MM = Missing Value Source: NWS Daily Summary

Daily Weather History Graph

Daily Weather History Graph

Search for Another Location

Airport or City:

Trip Planner

Search our weather history database for the weather conditions in past years. The results will help you decide how hot, cold, wet, or windy it might be!

Date:

Astronomy

Jan. 25, 2014 Rise Set
Actual Time 7:47 AM CST 5:36 PM CST
Civil Twilight 7:17 AM CST 6:06 PM CST
Nautical Twilight 6:43 AM CST 6:40 PM CST
Astronomical Twilight 6:11 AM CST 7:12 PM CST
Moon 2:20 AM CST (1/25) 12:38 PM CST (1/25)
Length of Visible Light 10h 49m
Length of Day
9h 49m
Waning Crescent, 34% of the Moon is Illuminated
Jan 25
Waning Crescent
Jan 30
New
Feb 6
First Quarter
Feb 14
Full
Feb 22
Last Quarter

Hourly Weather History & Observations

Time (CST) Temp. Windchill Dew Point Humidity Pressure Visibility Wind Dir Wind Speed Gust Speed Precip Events Conditions
12:15 AM 44.6 °F 36.6 °F 30.2 °F 57% 29.83 in 10.0 mi NNW 19.6 mph 24.2 mph N/A   Overcast
12:35 AM 44.6 °F 36.9 °F 30.2 °F 57% 29.84 in 10.0 mi NNW 18.4 mph - N/A   Overcast
12:55 AM 44.6 °F 36.4 °F 30.2 °F 57% 29.84 in 10.0 mi NW 20.7 mph 28.8 mph N/A   Overcast
1:15 AM 42.8 °F 35.1 °F 28.4 °F 57% 29.84 in 10.0 mi NW 16.1 mph - N/A   Overcast
1:35 AM 41.0 °F 34.7 °F 28.4 °F 61% 29.85 in 10.0 mi WNW 10.4 mph - N/A   Mostly Cloudy
1:55 AM 41.0 °F 33.1 °F 28.4 °F 61% 29.85 in 10.0 mi NW 15.0 mph 21.9 mph N/A   Scattered Clouds
2:15 AM 39.2 °F 32.0 °F 28.4 °F 65% 29.86 in 10.0 mi NW 11.5 mph 16.1 mph N/A   Mostly Cloudy
2:35 AM 37.4 °F 32.1 °F 26.6 °F 65% 29.86 in 10.0 mi WNW 6.9 mph - N/A   Scattered Clouds
2:55 AM 37.4 °F 33.8 °F 26.6 °F 65% 29.87 in 10.0 mi West 4.6 mph - N/A   Mostly Cloudy
3:15 AM 37.4 °F 32.8 °F 26.6 °F 65% 29.87 in 10.0 mi West 5.8 mph - N/A   Mostly Cloudy
3:35 AM 35.6 °F 32.8 °F 26.6 °F 70% 29.86 in 10.0 mi West 3.5 mph - N/A   Partly Cloudy
3:55 AM 37.4 °F 32.8 °F 26.6 °F 65% 29.87 in 10.0 mi West 5.8 mph - N/A   Mostly Cloudy
4:15 AM 39.2 °F 32.5 °F 28.4 °F 65% 29.87 in 10.0 mi WNW 10.4 mph - N/A   Mostly Cloudy
4:35 AM 41.0 °F 34.3 °F 28.4 °F 61% 29.86 in 10.0 mi WNW 11.5 mph - N/A   Overcast
4:55 AM 41.0 °F 33.5 °F 28.4 °F 61% 29.86 in 10.0 mi WNW 13.8 mph 17.3 mph N/A   Overcast
5:15 AM 41.0 °F 31.6 °F 30.2 °F 65% 29.87 in 10.0 mi NW 20.7 mph 28.8 mph N/A   Overcast
5:35 AM 39.2 °F 32.5 °F 30.2 °F 70% 29.87 in 10.0 mi NW 10.4 mph - N/A   Overcast
5:55 AM 39.2 °F 33.6 °F 30.2 °F 70% 29.88 in 10.0 mi NNW 8.1 mph - N/A   Overcast
6:15 AM 39.2 °F 30.8 °F 32.0 °F 75% 29.89 in 10.0 mi NNW 15.0 mph - N/A   Overcast
6:35 AM 37.4 °F 27.8 °F 30.2 °F 75% 29.92 in 10.0 mi North 17.3 mph 25.3 mph N/A   Overcast
6:55 AM 37.4 °F 27.8 °F 30.2 °F 75% 29.93 in 10.0 mi North 17.3 mph - N/A   Overcast
7:15 AM 37.4 °F 28.5 °F 30.2 °F 75% 29.95 in 10.0 mi NNW 15.0 mph - N/A   Overcast
7:35 AM 33.8 °F 23.2 °F 28.4 °F 81% 29.98 in 10.0 mi North 17.3 mph 28.8 mph N/A   Overcast
7:55 AM 32.0 °F 23.0 °F 26.6 °F 80% 29.99 in 10.0 mi North 11.5 mph - N/A   Mostly Cloudy
8:15 AM 32.0 °F 25.6 °F 26.6 °F 80% 30.00 in 10.0 mi North 6.9 mph - N/A   Overcast
8:35 AM 32.0 °F 21.6 °F 24.8 °F 75% 30.02 in 10.0 mi NNW 15.0 mph 20.7 mph N/A   Overcast
8:55 AM 32.0 °F 22.1 °F 21.2 °F 64% 30.03 in 10.0 mi NNW 13.8 mph 18.4 mph N/A   Overcast
9:15 AM 30.2 °F 20.8 °F 21.2 °F 69% 30.04 in 10.0 mi North 11.5 mph - N/A   Overcast
9:35 AM 30.2 °F 18.5 °F 19.4 °F 64% 30.05 in 10.0 mi North 17.3 mph 23.0 mph N/A   Overcast
9:55 AM 30.2 °F 21.3 °F 19.4 °F 64% 30.05 in 10.0 mi North 10.4 mph - N/A   Overcast
10:15 AM 33.8 °F 26.4 °F 19.4 °F 56% 30.05 in 10.0 mi North 9.2 mph - N/A   Mostly Cloudy
10:35 AM 33.8 °F 23.5 °F 19.4 °F 56% 30.06 in 10.0 mi NNW 16.1 mph - N/A   Mostly Cloudy
10:55 AM 33.8 °F 23.5 °F 19.4 °F 56% 30.06 in 10.0 mi North 16.1 mph 24.2 mph N/A   Mostly Cloudy
11:15 AM 33.8 °F 22.2 °F 17.6 °F 52% 30.07 in 10.0 mi NNW 20.7 mph 27.6 mph N/A   Mostly Cloudy
11:35 AM 33.8 °F 23.2 °F 17.6 °F 52% 30.06 in 10.0 mi North 17.3 mph - N/A   Overcast
11:55 AM 33.8 °F 24.8 °F 19.4 °F 56% 30.06 in 10.0 mi North 12.7 mph - N/A   Mostly Cloudy
12:15 PM 35.6 °F 25.9 °F 19.4 °F 52% 30.06 in 10.0 mi NNW 16.1 mph 21.9 mph N/A   Overcast
12:35 PM 35.6 °F 24.8 °F 19.4 °F 52% 30.04 in 10.0 mi NW 19.6 mph 23.0 mph N/A   Overcast
12:55 PM 35.6 °F 25.9 °F 19.4 °F 52% 30.03 in 10.0 mi NNW 16.1 mph 20.7 mph N/A   Overcast
1:15 PM 35.6 °F 27.1 °F 19.4 °F 52% 30.02 in 10.0 mi NNW 12.7 mph 19.6 mph N/A   Overcast
1:35 PM 35.6 °F 26.6 °F 19.4 °F 52% 30.01 in 10.0 mi NNW 13.8 mph - N/A   Overcast
1:55 PM 35.6 °F 28.0 °F 19.4 °F 52% 30.00 in 10.0 mi NW 10.4 mph - N/A   Overcast
2:15 PM 37.4 °F 30.3 °F 21.2 °F 52% 29.98 in 10.0 mi WNW 10.4 mph - N/A   Overcast
2:35 PM 37.4 °F 30.3 °F 21.2 °F 52% 29.97 in 10.0 mi West 10.4 mph - N/A   Overcast
2:55 PM 39.2 °F 33.0 °F 23.0 °F 52% 29.95 in 10.0 mi WNW 9.2 mph - N/A   Overcast
3:15 PM 37.4 °F 32.1 °F 21.2 °F 52% 29.94 in 10.0 mi West 6.9 mph - N/A   Mostly Cloudy
3:35 PM 39.2 °F 32.5 °F 24.8 °F 56% 29.92 in 10.0 mi West 10.4 mph - N/A   Mostly Cloudy
3:55 PM 39.2 °F 34.2 °F 23.0 °F 52% 29.92 in 10.0 mi WSW 6.9 mph - N/A   Partly Cloudy
4:15 PM 39.2 °F 34.2 °F 23.0 °F 52% 29.90 in 10.0 mi WSW 6.9 mph - N/A   Clear
4:35 PM 39.2 °F 35.0 °F 23.0 °F 52% 29.88 in 10.0 mi SW 5.8 mph - N/A   Clear
4:55 PM 37.4 °F 30.8 °F 23.0 °F 56% 29.87 in 10.0 mi SSW 9.2 mph - N/A   Clear
5:15 PM 37.4 °F 31.4 °F 23.0 °F 56% 29.86 in 10.0 mi SSW 8.1 mph - N/A   Mostly Cloudy
5:35 PM 37.4 °F 32.8 °F 23.0 °F 56% 29.85 in 10.0 mi SSW 5.8 mph - N/A   Overcast
5:55 PM 37.4 °F 30.8 °F 23.0 °F 56% 29.83 in 10.0 mi South 9.2 mph - N/A   Overcast
6:15 PM 37.4 °F 30.8 °F 23.0 °F 56% 29.81 in 10.0 mi South 9.2 mph - N/A   Overcast
6:35 PM 37.4 °F 30.3 °F 24.8 °F 60% 29.79 in 10.0 mi South 10.4 mph - N/A   Overcast
6:55 PM 37.4 °F 30.8 °F 23.0 °F 56% 29.77 in 10.0 mi South 9.2 mph - N/A   Mostly Cloudy
7:15 PM 37.4 °F 28.9 °F 24.8 °F 60% 29.75 in 10.0 mi SSW 13.8 mph 18.4 mph N/A   Mostly Cloudy
7:35 PM 37.4 °F 28.5 °F 24.8 °F 60% 29.73 in 10.0 mi SSW 15.0 mph 21.9 mph N/A   Mostly Cloudy
7:55 PM 37.4 °F 28.9 °F 24.8 °F 60% 29.70 in 10.0 mi SSW 13.8 mph 21.9 mph N/A   Clear
8:15 PM 37.4 °F 28.2 °F 24.8 °F 60% 29.68 in 10.0 mi SSW 16.1 mph - N/A   Clear
8:35 PM 37.4 °F 28.5 °F 24.8 °F 60% 29.66 in 10.0 mi SSW 15.0 mph 24.2 mph N/A   Clear
8:55 PM 37.4 °F 28.9 °F 24.8 °F 60% 29.64 in 10.0 mi SSW 13.8 mph 21.9 mph N/A   Clear
9:15 PM 37.4 °F 28.9 °F 26.6 °F 65% 29.62 in 10.0 mi SSW 13.8 mph 17.3 mph N/A   Clear
9:35 PM 39.2 °F 30.8 °F 26.6 °F 61% 29.60 in 10.0 mi SW 15.0 mph 19.6 mph N/A   Clear
9:55 PM 41.0 °F 33.5 °F 28.4 °F 61% 29.60 in 10.0 mi SW 13.8 mph - N/A   Clear
10:15 PM 42.8 °F 35.4 °F 28.4 °F 57% 29.59 in 10.0 mi WSW 15.0 mph 21.9 mph N/A   Clear
10:35 PM 42.8 °F 38.0 °F 28.4 °F 57% 29.60 in 10.0 mi West 8.1 mph - N/A   Clear
10:55 PM 44.6 °F 38.1 °F 30.2 °F 57% 29.58 in 10.0 mi WSW 13.8 mph 20.7 mph N/A   Clear
11:15 PM 44.6 °F 38.8 °F 28.4 °F 53% 29.57 in 10.0 mi West 11.5 mph 23.0 mph N/A   Clear
11:35 PM 44.6 °F 37.8 °F 28.4 °F 53% 29.57 in 10.0 mi WSW 15.0 mph 20.7 mph N/A   Clear
11:55 PM 44.6 °F 38.4 °F 28.4 °F 53% 29.57 in 10.0 mi West 12.7 mph - N/A   Clear